Location: Ladrillo (historical)
(32.8195°N, 117.2231°W)
Time: 08:06:30
(UTC+00:00)

FO-99 - Pass Details

Date: 21 April 2021
Orbit: 472 x 506 km, 97.2° (Epoch: 09 May)

Event Time Altitude Azimuth Distance (km) Brightness Sun altitude
Exits shadow 04:47:20 17° 250° (WSW) 1,324 ? -27.9°
Maximum altitude 04:48:02 18° 265° (W) 1,290 ? -28.1°
Drops below altitude 10° 04:50:38 10° 310° (NW) 1,720 ? -28.5°
Sets 04:53:14 0° 329° (NNW) 2,608 ? -28.9°
